Location: Krakow
(50.0830°N, 19.9170°E)
Time: 07:09:36
(UTC+02:00)

Tiros 1 despin weight - Pass Details

Date: 15 March 2026
Orbit: 555 x 592 km, 48.2° (Epoch: 18 April)

Event Time Altitude Azimuth Distance (km) Brightness Sun altitude
Rises 04:07:36 0° 200° (SSW) 2,808 - -17.7°
Exits shadow 04:09:49 - 186° (S) 2,118 ? -17.4°
Reaches altitude 10° 04:10:39 10° 178° (S) 1,907 ? -17.3°
Maximum altitude 04:13:14 15° 141° (SE) 1,579 ? -16.9°
Drops below altitude 10° 04:15:48 10° 105° (ESE) 1,903 ? -16.5°
Sets 04:18:51 0° 83° (E) 2,799 ? -16.0°
